Warroad, MN

6:15 AM CST on February 11, 2016 (GMT -0600)
Warroad International-Carlson

Weather History for KRRT - December, 2013

Change the Weather History Date:

Saturday, December 7, 2013

  Actual Average Record
Temperature  
Mean Temperature -16 °F -  
Max Temperature -9 °F 20 °F 46 °F (1952)
Min Temperature -23 °F 2 °F -25 °F (1976)
Degree Days  
Heating Degree Days 81    
Moisture  
Dew Point -23 °F    
Average Humidity 71    
Maximum Humidity 77    
Minimum Humidity 65    
Precipitation  
Precipitation 0.00 in - - ()
Sea Level Pressure  
Sea Level Pressure 30.43 in    
Wind  
Wind Speed 7 mph (SW)    
Max Wind Speed 13 mph    
Max Gust Speed 17 mph    
Visibility 10 miles    
Events Snow    
Averages and records for this station are not official NWS values.
T = Trace of Precipitation, MM = Missing Value Source: NWS Daily Summary

Daily Weather History Graph

Daily Weather History Graph

Search for Another Location

Airport or City:

Trip Planner

Search our weather history database for the weather conditions in past years. The results will help you decide how hot, cold, wet, or windy it might be!

Date:

Astronomy

Dec. 07, 2013 Rise Set
Actual Time 8:01 AM CST 4:24 PM CST
Civil Twilight 7:24 AM CST 5:01 PM CST
Nautical Twilight 6:44 AM CST 5:41 PM CST
Astronomical Twilight 6:05 AM CST 6:19 PM CST
Moon 11:28 AM CST (12/7) 10:28 PM CST (12/7)
Length of Visible Light 9h 37m
Length of Day
8h 23m
Waxing Crescent, 29% of the Moon is Illuminated
Dec 7
Waxing Crescent
Dec 9
First Quarter
Dec 17
Full
Dec 25
Last Quarter
Jan 1
New

Hourly Weather History & Observations

Time (CST) Temp. Windchill Dew Point Humidity Pressure Visibility Wind Dir Wind Speed Gust Speed Precip Events Conditions
12:13 AM -14.8 °F -33.5 °F -20.2 °F 77% 30.46 in 10.0 mi WSW 9.2 mph - N/A   Clear
12:34 AM -16.6 °F -35.7 °F -22.0 °F 76% 30.46 in 10.0 mi WSW 9.2 mph - N/A   Clear
12:54 AM -16.6 °F -32.9 °F -22.0 °F 76% 30.46 in 10.0 mi SW 6.9 mph - N/A   Clear
1:13 AM -16.6 °F -29.3 °F -22.0 °F 76% 30.47 in 10.0 mi WSW 4.6 mph - N/A   Clear
1:34 AM -16.6 °F -29.3 °F -23.8 °F 70% 30.47 in 10.0 mi SW 4.6 mph - N/A   Clear
1:54 AM -18.4 °F -35.1 °F -23.8 °F 76% 30.47 in 10.0 mi SW 6.9 mph - N/A   Clear
2:13 AM -18.4 °F -31.4 °F -25.6 °F 70% 30.47 in 10.0 mi SW 4.6 mph - N/A   Clear
2:34 AM -18.4 °F -33.4 °F -25.6 °F 70% 30.47 in 10.0 mi SW 5.8 mph - N/A   Clear
2:54 AM -20.2 °F -33.5 °F -27.4 °F 69% 30.47 in 10.0 mi SSW 4.6 mph - N/A   Clear
3:13 AM -20.2 °F - -27.4 °F 69% 30.48 in 10.0 mi Calm Calm - N/A   Clear
3:34 AM -20.2 °F -35.5 °F -27.4 °F 69% 30.47 in 10.0 mi SW 5.8 mph - N/A   Clear
3:54 AM -20.2 °F -33.5 °F -27.4 °F 69% 30.47 in 7.0 mi SW 4.6 mph - N/A   Clear
4:13 AM -20.2 °F -38.8 °F -27.4 °F 69% 30.47 in 10.0 mi SW 8.1 mph - N/A   Clear
4:34 AM -20.2 °F -35.5 °F -27.4 °F 69% 30.47 in 10.0 mi SW 5.8 mph - N/A   Mostly Cloudy
4:54 AM -20.2 °F -33.5 °F -27.4 °F 69% 30.47 in 10.0 mi WSW 4.6 mph - N/A   Overcast
5:14 AM -20.2 °F -30.9 °F -27.4 °F 69% 30.47 in 10.0 mi WSW 3.5 mph - N/A   Overcast
5:33 AM -20.2 °F -35.5 °F -27.4 °F 69% 30.47 in 10.0 mi SW 5.8 mph - N/A   Overcast
5:54 AM -20.2 °F - -27.4 °F 69% 30.46 in 10.0 mi Calm Calm - N/A   Overcast
6:14 AM -20.2 °F - -27.4 °F 69% 30.46 in 10.0 mi Calm Calm - N/A   Overcast
6:34 AM -20.2 °F -33.5 °F -27.4 °F 69% 30.46 in 10.0 mi WSW 4.6 mph - N/A   Mostly Cloudy
6:54 AM -22.0 °F -35.6 °F -29.2 °F 69% 30.46 in 10.0 mi SW 4.6 mph - N/A   Scattered Clouds
7:14 AM -23.8 °F -39.8 °F -29.2 °F 76% 30.46 in 7.0 mi SW 5.8 mph - N/A   Clear
7:34 AM -22.0 °F -33.0 °F -29.2 °F 69% 30.46 in 7.0 mi SW 3.5 mph - N/A Snow Light Snow
7:54 AM -22.0 °F -35.6 °F -29.2 °F 69% 30.46 in 7.0 mi SW 4.6 mph - N/A   Mostly Cloudy
8:14 AM -23.8 °F -39.8 °F -29.2 °F 76% 30.46 in 7.0 mi WSW 5.8 mph - N/A   Overcast
8:34 AM -22.0 °F -37.7 °F -29.2 °F 69% 30.46 in 7.0 mi SW 5.8 mph - N/A   Overcast
8:54 AM -22.0 °F -37.7 °F -29.2 °F 69% 30.46 in 10.0 mi SW 5.8 mph - N/A   Overcast
9:14 AM -20.2 °F -37.3 °F -27.4 °F 69% 30.46 in 7.0 mi WSW 6.9 mph - N/A   Mostly Cloudy
9:34 AM -20.2 °F -37.3 °F -27.4 °F 69% 30.47 in 7.0 mi SW 6.9 mph - N/A   Clear
9:54 AM -20.2 °F -38.8 °F -25.6 °F 76% 30.47 in 10.0 mi SW 8.1 mph - N/A   Clear
10:13 AM -18.4 °F -35.1 °F -25.6 °F 70% 30.47 in 10.0 mi WSW 6.9 mph - N/A   Clear
10:34 AM -16.6 °F -32.9 °F -23.8 °F 70% 30.47 in 10.0 mi SW 6.9 mph - N/A   Clear
10:53 AM -16.6 °F -31.3 °F -23.8 °F 70% 30.47 in 10.0 mi SW 5.8 mph - N/A   Clear
11:14 AM -14.8 °F -30.8 °F -22.0 °F 70% 30.47 in 10.0 mi SSW 6.9 mph - N/A   Scattered Clouds
11:34 AM -14.8 °F -32.2 °F -22.0 °F 70% 30.47 in 10.0 mi SW 8.1 mph - N/A   Mostly Cloudy
11:53 AM -14.8 °F -34.6 °F -20.2 °F 77% 30.47 in 7.0 mi SW 10.4 mph 16.1 mph N/A   Overcast
12:14 PM -13.0 °F -31.3 °F -20.2 °F 70% 30.47 in 7.0 mi SW 9.2 mph - N/A   Overcast
12:33 PM -13.0 °F -30.0 °F -20.2 °F 70% 30.46 in 7.0 mi SW 8.1 mph - N/A   Mostly Cloudy
12:54 PM -11.2 °F -27.8 °F -18.4 °F 70% 30.46 in 10.0 mi SW 8.1 mph - N/A   Mostly Cloudy
1:14 PM -11.2 °F -29.0 °F -18.4 °F 70% 30.45 in 7.0 mi SW 9.2 mph - N/A   Scattered Clouds
1:34 PM -9.4 °F -29.8 °F -18.4 °F 65% 30.45 in 10.0 mi SW 12.7 mph - N/A   Clear
1:53 PM -9.4 °F -27.9 °F -18.4 °F 65% 30.44 in 10.0 mi SW 10.4 mph 17.3 mph N/A   Clear
2:14 PM -9.4 °F -24.3 °F -18.4 °F 65% 30.44 in 10.0 mi SW 6.9 mph - N/A   Clear
2:34 PM -9.4 °F -27.9 °F -18.4 °F 65% 30.43 in 10.0 mi SW 10.4 mph - N/A   Clear
2:54 PM -9.4 °F -26.8 °F -18.4 °F 65% 30.42 in 10.0 mi SW 9.2 mph 16.1 mph N/A   Clear
3:14 PM -9.4 °F -26.8 °F -18.4 °F 65% 30.42 in 10.0 mi SW 9.2 mph 16.1 mph N/A   Clear
3:33 PM -9.4 °F -26.8 °F -18.4 °F 65% 30.42 in 10.0 mi SW 9.2 mph - N/A   Clear
3:54 PM -9.4 °F -26.8 °F -18.4 °F 65% 30.42 in 10.0 mi SW 9.2 mph - N/A   Clear
4:14 PM -11.2 °F -27.8 °F -18.4 °F 70% 30.42 in 10.0 mi SW 8.1 mph - N/A   Clear
4:33 PM -11.2 °F -26.4 °F -18.4 °F 70% 30.42 in 10.0 mi SW 6.9 mph - N/A   Clear
4:54 PM -11.2 °F -26.4 °F -18.4 °F 70% 30.41 in 10.0 mi SW 6.9 mph - N/A   Clear
5:14 PM -13.0 °F -30.0 °F -20.2 °F 70% 30.41 in 10.0 mi SW 8.1 mph - N/A   Clear
5:34 PM -13.0 °F -30.0 °F -20.2 °F 70% 30.41 in 10.0 mi SW 8.1 mph - N/A   Clear
5:54 PM -13.0 °F -28.6 °F -20.2 °F 70% 30.41 in 10.0 mi SW 6.9 mph - N/A   Clear
6:14 PM -14.8 °F -30.8 °F -20.2 °F 77% 30.41 in 10.0 mi SSW 6.9 mph - N/A   Clear
6:33 PM -14.8 °F -32.2 °F -20.2 °F 77% 30.41 in 10.0 mi SW 8.1 mph - N/A   Clear
6:54 PM -14.8 °F -32.2 °F -20.2 °F 77% 30.41 in 10.0 mi SW 8.1 mph - N/A   Clear
7:14 PM -14.8 °F -35.6 °F -20.2 °F 77% 30.40 in 10.0 mi SW 11.5 mph - N/A   Clear
7:34 PM -14.8 °F -34.6 °F -20.2 °F 77% 30.40 in 10.0 mi SW 10.4 mph - N/A   Clear
7:54 PM -14.8 °F -33.5 °F -20.2 °F 77% 30.40 in 10.0 mi SW 9.2 mph - N/A   Clear
8:14 PM -14.8 °F -33.5 °F -20.2 °F 77% 30.39 in 10.0 mi SW 9.2 mph - N/A   Clear
8:34 PM -14.8 °F -32.2 °F -20.2 °F 77% 30.38 in 10.0 mi SW 8.1 mph - N/A   Clear
8:54 PM -14.8 °F -33.5 °F -20.2 °F 77% 30.37 in 10.0 mi SW 9.2 mph - N/A   Clear
9:14 PM -14.8 °F -33.5 °F -22.0 °F 70% 30.37 in 10.0 mi SW 9.2 mph - N/A   Clear
9:34 PM -16.6 °F -32.9 °F -23.8 °F 70% 30.37 in 10.0 mi SSW 6.9 mph - N/A   Clear
9:54 PM -16.6 °F -34.4 °F -23.8 °F 70% 30.36 in 10.0 mi SW 8.1 mph - N/A   Clear
10:14 PM -16.6 °F -32.9 °F -23.8 °F 70% 30.35 in 10.0 mi SSW 6.9 mph - N/A   Clear
10:34 PM -18.4 °F -39.1 °F -23.8 °F 76% 30.35 in 10.0 mi SW 10.4 mph - N/A   Clear
10:54 PM -16.6 °F -35.7 °F -23.8 °F 70% 30.34 in 10.0 mi SSW 9.2 mph - N/A   Clear
11:14 PM -16.6 °F -35.7 °F -23.8 °F 70% 30.34 in 10.0 mi SW 9.2 mph - N/A   Clear
11:34 PM -16.6 °F -36.8 °F -23.8 °F 70% 30.34 in 10.0 mi SSW 10.4 mph - N/A   Clear
11:54 PM -16.6 °F -34.4 °F -23.8 °F 70% 30.34 in 10.0 mi SW 8.1 mph - N/A   Clear